owner,sensor,date,latitude,longitude,sea_surface_height_above_sea_level,qcFlag 
COMPS,ioos:station:USF.COMPS:SHP:1,2013-02-01T00:00:00Z,30.0600,-84.2910,-0.103,1111122 
COMPS,ioos:station:USF.COMPS:SHP:1,2013-02-01T00:06:00Z,30.0600,-84.2910,-0.112,1111122 
COMPS,ioos:station:USF.COMPS:SHP:1,2013-02-01T00:12:00Z,30.0600,-84.2910,-0.128,1111122 
COMPS,ioos:station:USF.COMPS:SHP:1,2013-02-01T00:18:00Z,30.0600,-84.2910,-0.146,1111122 
COMPS,ioos:station:USF.COMPS:SHP:1,2013-02-01T00:24:00Z,30.0600,-84.2910,-0.163,1111122 
COMPS,ioos:station:USF.COMPS:SHP:1,2013-02-01T00:30:00Z,30.0600,-84.2910,-0.189,1111122 
COMPS,ioos:station:USF.COMPS:SHP:1,2013-02-01T00:36:00Z,30.0600,-84.2910,-0.209,1111122 
COMPS,ioos:station:USF.COMPS:SHP:1,2013-02-01T00:42:00Z,30.0600,-84.2910,-0.226,1111122 
COMPS,ioos:station:USF.COMPS:SHP:1,2013-02-01T00:48:00Z,30.0600,-84.2910,-0.238,1111122 
COMPS,ioos:station:USF.COMPS:SHP:1,2013-02-01T00:54:00Z,30.0600,-84.2910,-0.247,1111122 
COMPS,ioos:station:USF.COMPS:SHP:1,2013-02-01T01:00:00Z,30.0600,-84.2910,-0.264,1111122 
COMPS,ioos:station:USF.COMPS:SHP:1,2013-02-01T01:06:00Z,30.0600,-84.2910,-0.278,1111122 
COMPS,ioos:station:USF.COMPS:SHP:1,2013-02-01T01:12:00Z,30.0600,-84.2910,-0.293,1111122 
COMPS,ioos:station:USF.COMPS:SHP:1,2013-02-01T01:18:00Z,30.0600,-84.2910,-0.309,1111122 
COMPS,ioos:station:USF.COMPS:SHP:1,2013-02-01T01:24:00Z,30.0600,-84.2910,-0.323,1111122 
COMPS,ioos:station:USF.COMPS:SHP:1,2013-02-01T01:30:00Z,30.0600,-84.2910,-0.338,1111122 
COMPS,ioos:station:USF.COMPS:SHP:1,2013-02-01T01:36:00Z,30.0600,-84.2910,-0.351,1111122 
COMPS,ioos:station:USF.COMPS:SHP:1,2013-02-01T01:42:00Z,30.0600,-84.2910,-0.362,1111122 
COMPS,ioos:station:USF.COMPS:SHP:1,2013-02-01T01:48:00Z,30.0600,-84.2910,-0.372,1111122 
COMPS,ioos:station:USF.COMPS:SHP:1,2013-02-01T01:54:00Z,30.0600,-84.2910,-0.385,1111122 
COMPS,ioos:station:USF.COMPS:SHP:1,2013-02-01T02:00:00Z,30.0600,-84.2910,-0.399,1111122 
COMPS,ioos:station:USF.COMPS:SHP:1,2013-02-01T02:06:00Z,30.0600,-84.2910,-0.414,1111122 
COMPS,ioos:station:USF.COMPS:SHP:1,2013-02-01T02:12:00Z,30.0600,-84.2910,-0.428,1111122 
COMPS,ioos:station:USF.COMPS:SHP:1,2013-02-01T02:18:00Z,30.0600,-84.2910,-0.443,1111122 
COMPS,ioos:station:USF.COMPS:SHP:1,2013-02-01T02:24:00Z,30.0600,-84.2910,-0.457,1111122 
COMPS,ioos:station:USF.COMPS:SHP:1,2013-02-01T02:30:00Z,30.0600,-84.2910,-0.47,1111122 
COMPS,ioos:station:USF.COMPS:SHP:1,2013-02-01T02:36:00Z,30.0600,-84.2910,-0.48,1111122 
COMPS,ioos:station:USF.COMPS:SHP:1,2013-02-01T02:42:00Z,30.0600,-84.2910,-0.492,1111122 
COMPS,ioos:station:USF.COMPS:SHP:1,2013-02-01T02:48:00Z,30.0600,-84.2910,-0.504,1111122 
COMPS,ioos:station:USF.COMPS:SHP:1,2013-02-01T02:54:00Z,30.0600,-84.2910,-0.517,1111122 
COMPS,ioos:station:USF.COMPS:SHP:1,2013-02-01T03:00:00Z,30.0600,-84.2910,-0.531,1111122 
COMPS,ioos:station:USF.COMPS:SHP:1,2013-02-01T03:06:00Z,30.0600,-84.2910,-0.544,1111122 
COMPS,ioos:station:USF.COMPS:SHP:1,2013-02-01T03:12:00Z,30.0600,-84.2910,-0.557,1111122 
COMPS,ioos:station:USF.COMPS:SHP:1,2013-02-01T03:18:00Z,30.0600,-84.2910,-0.568,1111122 
COMPS,ioos:station:USF.COMPS:SHP:1,2013-02-01T03:24:00Z,30.0600,-84.2910,-0.579,1111122 
COMPS,ioos:station:USF.COMPS:SHP:1,2013-02-01T03:30:00Z,30.0600,-84.2910,-0.586,1111122 
COMPS,ioos:station:USF.COMPS:SHP:1,2013-02-01T03:36:00Z,30.0600,-84.2910,-0.589,1111122 
COMPS,ioos:station:USF.COMPS:SHP:1,2013-02-01T03:42:00Z,30.0600,-84.2910,-0.593,1111122 
COMPS,ioos:station:USF.COMPS:SHP:1,2013-02-01T03:48:00Z,30.0600,-84.2910,-0.601,1111122 
COMPS,ioos:station:USF.COMPS:SHP:1,2013-02-01T03:54:00Z,30.0600,-84.2910,-0.603,1111122 
COMPS,ioos:station:USF.COMPS:SHP:1,2013-02-01T04:00:00Z,30.0600,-84.2910,-0.601,1111122 
COMPS,ioos:station:USF.COMPS:SHP:1,2013-02-01T04:06:00Z,30.0600,-84.2910,-0.6,1111122 
COMPS,ioos:station:USF.COMPS:SHP:1,2013-02-01T04:12:00Z,30.0600,-84.2910,-0.605,1111122 
COMPS,ioos:station:USF.COMPS:SHP:1,2013-02-01T04:18:00Z,30.0600,-84.2910,-0.609,1111122 
COMPS,ioos:station:USF.COMPS:SHP:1,2013-02-01T04:24:00Z,30.0600,-84.2910,-0.609,1111122 
COMPS,ioos:station:USF.COMPS:SHP:1,2013-02-01T04:30:00Z,30.0600,-84.2910,-0.613,1111122 
COMPS,ioos:station:USF.COMPS:SHP:1,2013-02-01T04:36:00Z,30.0600,-84.2910,-0.621,1111122 
COMPS,ioos:station:USF.COMPS:SHP:1,2013-02-01T04:42:00Z,30.0600,-84.2910,-0.623,1111122 
COMPS,ioos:station:USF.COMPS:SHP:1,2013-02-01T04:48:00Z,30.0600,-84.2910,-0.618,1111122 
COMPS,ioos:station:USF.COMPS:SHP:1,2013-02-01T04:54:00Z,30.0600,-84.2910,-0.613,1111122 
COMPS,ioos:station:USF.COMPS:SHP:1,2013-02-01T05:00:00Z,30.0600,-84.2910,-0.608,1111122 
COMPS,ioos:station:USF.COMPS:SHP:1,2013-02-01T05:06:00Z,30.0600,-84.2910,-0.6,1111122 
COMPS,ioos:station:USF.COMPS:SHP:1,2013-02-01T05:12:00Z,30.0600,-84.2910,-0.593,1111122 
COMPS,ioos:station:USF.COMPS:SHP:1,2013-02-01T05:18:00Z,30.0600,-84.2910,-0.588,1111122 
COMPS,ioos:station:USF.COMPS:SHP:1,2013-02-01T05:24:00Z,30.0600,-84.2910,-0.583,1111122 
COMPS,ioos:station:USF.COMPS:SHP:1,2013-02-01T05:30:00Z,30.0600,-84.2910,-0.577,1111122 
COMPS,ioos:station:USF.COMPS:SHP:1,2013-02-01T05:36:00Z,30.0600,-84.2910,-0.571,1111122 
COMPS,ioos:station:USF.COMPS:SHP:1,2013-02-01T05:42:00Z,30.0600,-84.2910,-0.571,1111122 
COMPS,ioos:station:USF.COMPS:SHP:1,2013-02-01T05:48:00Z,30.0600,-84.2910,-0.568,1111122 
COMPS,ioos:station:USF.COMPS:SHP:1,2013-02-01T05:54:00Z,30.0600,-84.2910,-0.559,1111122 
COMPS,ioos:station:USF.COMPS:SHP:1,2013-02-01T06:00:00Z,30.0600,-84.2910,-0.55,1111122 
COMPS,ioos:station:USF.COMPS:SHP:1,2013-02-01T06:06:00Z,30.0600,-84.2910,-0.541,1111122 
COMPS,ioos:station:USF.COMPS:SHP:1,2013-02-01T06:12:00Z,30.0600,-84.2910,-0.531,1111122 
COMPS,ioos:station:USF.COMPS:SHP:1,2013-02-01T06:18:00Z,30.0600,-84.2910,-0.52,1111122 
COMPS,ioos:station:USF.COMPS:SHP:1,2013-02-01T06:24:00Z,30.0600,-84.2910,-0.512,1111122 
COMPS,ioos:station:USF.COMPS:SHP:1,2013-02-01T06:30:00Z,30.0600,-84.2910,-0.502,1111122 
COMPS,ioos:station:USF.COMPS:SHP:1,2013-02-01T06:36:00Z,30.0600,-84.2910,-0.49,1111122 
COMPS,ioos:station:USF.COMPS:SHP:1,2013-02-01T06:42:00Z,30.0600,-84.2910,-0.477,1111122 
COMPS,ioos:station:USF.COMPS:SHP:1,2013-02-01T06:48:00Z,30.0600,-84.2910,-0.462,1111122 
COMPS,ioos:station:USF.COMPS:SHP:1,2013-02-01T06:54:00Z,30.0600,-84.2910,-0.446,1111122 
COMPS,ioos:station:USF.COMPS:SHP:1,2013-02-01T07:00:00Z,30.0600,-84.2910,-0.432,1111122 
COMPS,ioos:station:USF.COMPS:SHP:1,2013-02-01T07:06:00Z,30.0600,-84.2910,-0.42,1111122 
COMPS,ioos:station:USF.COMPS:SHP:1,2013-02-01T07:12:00Z,30.0600,-84.2910,-0.401,1111122 
COMPS,ioos:station:USF.COMPS:SHP:1,2013-02-01T07:18:00Z,30.0600,-84.2910,-0.383,1111122 
COMPS,ioos:station:USF.COMPS:SHP:1,2013-02-01T07:24:00Z,30.0600,-84.2910,-0.369,1111122 
COMPS,ioos:station:USF.COMPS:SHP:1,2013-02-01T07:30:00Z,30.0600,-84.2910,-0.355,1111122 
COMPS,ioos:station:USF.COMPS:SHP:1,2013-02-01T07:36:00Z,30.0600,-84.2910,-0.34,1111122 
COMPS,ioos:station:USF.COMPS:SHP:1,2013-02-01T07:42:00Z,30.0600,-84.2910,-0.328,1111122 
COMPS,ioos:station:USF.COMPS:SHP:1,2013-02-01T07:48:00Z,30.0600,-84.2910,-0.316,1111122 
COMPS,ioos:station:USF.COMPS:SHP:1,2013-02-01T07:54:00Z,30.0600,-84.2910,-0.299,1111122 
COMPS,ioos:station:USF.COMPS:SHP:1,2013-02-01T08:00:00Z,30.0600,-84.2910,-0.28,1111122 
COMPS,ioos:station:USF.COMPS:SHP:1,2013-02-01T08:06:00Z,30.0600,-84.2910,-0.262,1111122 
COMPS,ioos:station:USF.COMPS:SHP:1,2013-02-01T08:12:00Z,30.0600,-84.2910,-0.244,1111122 
COMPS,ioos:station:USF.COMPS:SHP:1,2013-02-01T08:18:00Z,30.0600,-84.2910,-0.227,1111122 
COMPS,ioos:station:USF.COMPS:SHP:1,2013-02-01T08:24:00Z,30.0600,-84.2910,-0.209,1111122 
COMPS,ioos:station:USF.COMPS:SHP:1,2013-02-01T08:30:00Z,30.0600,-84.2910,-0.19,1111122 
COMPS,ioos:station:USF.COMPS:SHP:1,2013-02-01T08:36:00Z,30.0600,-84.2910,-0.173,1111122 
COMPS,ioos:station:USF.COMPS:SHP:1,2013-02-01T08:42:00Z,30.0600,-84.2910,-0.158,1111122 
COMPS,ioos:station:USF.COMPS:SHP:1,2013-02-01T08:48:00Z,30.0600,-84.2910,-0.148,1111122 
COMPS,ioos:station:USF.COMPS:SHP:1,2013-02-01T08:54:00Z,30.0600,-84.2910,-0.142,1111122 
COMPS,ioos:station:USF.COMPS:SHP:1,2013-02-01T09:00:00Z,30.0600,-84.2910,-0.133,1111122 
COMPS,ioos:station:USF.COMPS:SHP:1,2013-02-01T09:06:00Z,30.0600,-84.2910,-0.117,1111122 
COMPS,ioos:station:USF.COMPS:SHP:1,2013-02-01T09:12:00Z,30.0600,-84.2910,-0.101,1111122 
COMPS,ioos:station:USF.COMPS:SHP:1,2013-02-01T09:18:00Z,30.0600,-84.2910,-0.096,1111122 
COMPS,ioos:station:USF.COMPS:SHP:1,2013-02-01T09:24:00Z,30.0600,-84.2910,-0.09,1111122 
COMPS,ioos:station:USF.COMPS:SHP:1,2013-02-01T09:30:00Z,30.0600,-84.2910,-0.082,1111122 
COMPS,ioos:station:USF.COMPS:SHP:1,2013-02-01T09:36:00Z,30.0600,-84.2910,-0.077,1111122 
COMPS,ioos:station:USF.COMPS:SHP:1,2013-02-01T09:42:00Z,30.0600,-84.2910,-0.067,1111122 
COMPS,ioos:station:USF.COMPS:SHP:1,2013-02-01T09:48:00Z,30.0600,-84.2910,-0.058,1111122 
COMPS,ioos:station:USF.COMPS:SHP:1,2013-02-01T09:54:00Z,30.0600,-84.2910,-0.055,1111122 
COMPS,ioos:station:USF.COMPS:SHP:1,2013-02-01T10:00:00Z,30.0600,-84.2910,-0.055,1111122 
COMPS,ioos:station:USF.COMPS:SHP:1,2013-02-01T10:06:00Z,30.0600,-84.2910,-0.057,1111122 
COMPS,ioos:station:USF.COMPS:SHP:1,2013-02-01T10:12:00Z,30.0600,-84.2910,-0.051,1111122 
COMPS,ioos:station:USF.COMPS:SHP:1,2013-02-01T10:18:00Z,30.0600,-84.2910,-0.04,1111122 
COMPS,ioos:station:USF.COMPS:SHP:1,2013-02-01T10:24:00Z,30.0600,-84.2910,-0.038,1111122 
COMPS,ioos:station:USF.COMPS:SHP:1,2013-02-01T10:30:00Z,30.0600,-84.2910,-0.045,1111122 
COMPS,ioos:station:USF.COMPS:SHP:1,2013-02-01T10:36:00Z,30.0600,-84.2910,-0.054,1111122 
COMPS,ioos:station:USF.COMPS:SHP:1,2013-02-01T10:42:00Z,30.0600,-84.2910,-0.059,1111122 
COMPS,ioos:station:USF.COMPS:SHP:1,2013-02-01T10:48:00Z,30.0600,-84.2910,-0.067,1111122 
COMPS,ioos:station:USF.COMPS:SHP:1,2013-02-01T10:54:00Z,30.0600,-84.2910,-0.069,1111122 
COMPS,ioos:station:USF.COMPS:SHP:1,2013-02-01T11:00:00Z,30.0600,-84.2910,-0.069,1111122 
COMPS,ioos:station:USF.COMPS:SHP:1,2013-02-01T11:06:00Z,30.0600,-84.2910,-0.071,1111122 
COMPS,ioos:station:USF.COMPS:SHP:1,2013-02-01T11:12:00Z,30.0600,-84.2910,-0.077,1111122 
COMPS,ioos:station:USF.COMPS:SHP:1,2013-02-01T11:18:00Z,30.0600,-84.2910,-0.088,1111122 
COMPS,ioos:station:USF.COMPS:SHP:1,2013-02-01T11:24:00Z,30.0600,-84.2910,-0.102,1111122 
COMPS,ioos:station:USF.COMPS:SHP:1,2013-02-01T11:30:00Z,30.0600,-84.2910,-0.119,1111122 
COMPS,ioos:station:USF.COMPS:SHP:1,2013-02-01T11:36:00Z,30.0600,-84.2910,-0.132,1111122 
COMPS,ioos:station:USF.COMPS:SHP:1,2013-02-01T11:42:00Z,30.0600,-84.2910,-0.139,1111122 
COMPS,ioos:station:USF.COMPS:SHP:1,2013-02-01T11:48:00Z,30.0600,-84.2910,-0.144,1111122 
COMPS,ioos:station:USF.COMPS:SHP:1,2013-02-01T11:54:00Z,30.0600,-84.2910,-0.153,1111122 
COMPS,ioos:station:USF.COMPS:SHP:1,2013-02-01T12:00:00Z,30.0600,-84.2910,-0.167,1111122 
COMPS,ioos:station:USF.COMPS:SHP:1,2013-02-01T12:06:00Z,30.0600,-84.2910,-0.179,1111122 
COMPS,ioos:station:USF.COMPS:SHP:1,2013-02-01T12:12:00Z,30.0600,-84.2910,-0.197,1111122 
COMPS,ioos:station:USF.COMPS:SHP:1,2013-02-01T12:18:00Z,30.0600,-84.2910,-0.217,1111122 
COMPS,ioos:station:USF.COMPS:SHP:1,2013-02-01T12:24:00Z,30.0600,-84.2910,-0.227,1111122 
COMPS,ioos:station:USF.COMPS:SHP:1,2013-02-01T12:30:00Z,30.0600,-84.2910,-0.236,1111122 
COMPS,ioos:station:USF.COMPS:SHP:1,2013-02-01T12:36:00Z,30.0600,-84.2910,-0.25,1111122 
COMPS,ioos:station:USF.COMPS:SHP:1,2013-02-01T12:42:00Z,30.0600,-84.2910,-0.263,1111122 
COMPS,ioos:station:USF.COMPS:SHP:1,2013-02-01T12:48:00Z,30.0600,-84.2910,-0.277,1111122 
COMPS,ioos:station:USF.COMPS:SHP:1,2013-02-01T12:54:00Z,30.0600,-84.2910,-0.299,1111122 
COMPS,ioos:station:USF.COMPS:SHP:1,2013-02-01T13:00:00Z,30.0600,-84.2910,-0.319,1111122 
COMPS,ioos:station:USF.COMPS:SHP:1,2013-02-01T13:06:00Z,30.0600,-84.2910,-0.335,1111122 
COMPS,ioos:station:USF.COMPS:SHP:1,2013-02-01T13:12:00Z,30.0600,-84.2910,-0.347,1111122 
COMPS,ioos:station:USF.COMPS:SHP:1,2013-02-01T13:18:00Z,30.0600,-84.2910,-0.36,1111122 
COMPS,ioos:station:USF.COMPS:SHP:1,2013-02-01T13:24:00Z,30.0600,-84.2910,-0.373,1111122 
COMPS,ioos:station:USF.COMPS:SHP:1,2013-02-01T13:30:00Z,30.0600,-84.2910,-0.386,1111122 
COMPS,ioos:station:USF.COMPS:SHP:1,2013-02-01T13:36:00Z,30.0600,-84.2910,-0.398,1111122 
COMPS,ioos:station:USF.COMPS:SHP:1,2013-02-01T13:42:00Z,30.0600,-84.2910,-0.412,1111122 
COMPS,ioos:station:USF.COMPS:SHP:1,2013-02-01T13:48:00Z,30.0600,-84.2910,-0.426,1111122 
COMPS,ioos:station:USF.COMPS:SHP:1,2013-02-01T13:54:00Z,30.0600,-84.2910,-0.441,1111122 
COMPS,ioos:station:USF.COMPS:SHP:1,2013-02-01T14:00:00Z,30.0600,-84.2910,-0.453,1111122 
COMPS,ioos:station:USF.COMPS:SHP:1,2013-02-01T14:06:00Z,30.0600,-84.2910,-0.465,1111122 
COMPS,ioos:station:USF.COMPS:SHP:1,2013-02-01T14:12:00Z,30.0600,-84.2910,-0.476,1111122 
COMPS,ioos:station:USF.COMPS:SHP:1,2013-02-01T14:18:00Z,30.0600,-84.2910,-0.49,1111122 
COMPS,ioos:station:USF.COMPS:SHP:1,2013-02-01T14:24:00Z,30.0600,-84.2910,-0.502,1111122 
COMPS,ioos:station:USF.COMPS:SHP:1,2013-02-01T14:30:00Z,30.0600,-84.2910,-0.512,1111122 
COMPS,ioos:station:USF.COMPS:SHP:1,2013-02-01T14:36:00Z,30.0600,-84.2910,-0.525,1111122 
COMPS,ioos:station:USF.COMPS:SHP:1,2013-02-01T14:42:00Z,30.0600,-84.2910,-0.54,1111122 
COMPS,ioos:station:USF.COMPS:SHP:1,2013-02-01T14:48:00Z,30.0600,-84.2910,-0.552,1111122 
COMPS,ioos:station:USF.COMPS:SHP:1,2013-02-01T14:54:00Z,30.0600,-84.2910,-0.563,1111122 
COMPS,ioos:station:USF.COMPS:SHP:1,2013-02-01T15:00:00Z,30.0600,-84.2910,-0.575,1111122 
COMPS,ioos:station:USF.COMPS:SHP:1,2013-02-01T15:06:00Z,30.0600,-84.2910,-0.587,1111122 
COMPS,ioos:station:USF.COMPS:SHP:1,2013-02-01T15:12:00Z,30.0600,-84.2910,-0.599,1111122 
COMPS,ioos:station:USF.COMPS:SHP:1,2013-02-01T15:18:00Z,30.0600,-84.2910,-0.611,1111122 
COMPS,ioos:station:USF.COMPS:SHP:1,2013-02-01T15:24:00Z,30.0600,-84.2910,-0.621,1111122 
COMPS,ioos:station:USF.COMPS:SHP:1,2013-02-01T15:30:00Z,30.0600,-84.2910,-0.632,1111122 
COMPS,ioos:station:USF.COMPS:SHP:1,2013-02-01T15:36:00Z,30.0600,-84.2910,-0.639,1111122 
COMPS,ioos:station:USF.COMPS:SHP:1,2013-02-01T15:42:00Z,30.0600,-84.2910,-0.644,1111122 
COMPS,ioos:station:USF.COMPS:SHP:1,2013-02-01T15:48:00Z,30.0600,-84.2910,-0.645,1111122 
COMPS,ioos:station:USF.COMPS:SHP:1,2013-02-01T15:54:00Z,30.0600,-84.2910,-0.647,1111122 
COMPS,ioos:station:USF.COMPS:SHP:1,2013-02-01T16:00:00Z,30.0600,-84.2910,-0.649,1111122 
COMPS,ioos:station:USF.COMPS:SHP:1,2013-02-01T16:06:00Z,30.0600,-84.2910,-0.654,1111122 
COMPS,ioos:station:USF.COMPS:SHP:1,2013-02-01T16:12:00Z,30.0600,-84.2910,-0.654,1111122 
COMPS,ioos:station:USF.COMPS:SHP:1,2013-02-01T16:18:00Z,30.0600,-84.2910,-0.65,1111122 
COMPS,ioos:station:USF.COMPS:SHP:1,2013-02-01T16:24:00Z,30.0600,-84.2910,-0.648,1111122 
COMPS,ioos:station:USF.COMPS:SHP:1,2013-02-01T16:30:00Z,30.0600,-84.2910,-0.651,1111122 
COMPS,ioos:station:USF.COMPS:SHP:1,2013-02-01T16:36:00Z,30.0600,-84.2910,-0.649,1111122 
COMPS,ioos:station:USF.COMPS:SHP:1,2013-02-01T16:42:00Z,30.0600,-84.2910,-0.641,1111122 
COMPS,ioos:station:USF.COMPS:SHP:1,2013-02-01T16:48:00Z,30.0600,-84.2910,-0.634,1111122 
COMPS,ioos:station:USF.COMPS:SHP:1,2013-02-01T16:54:00Z,30.0600,-84.2910,-0.625,1111122 
COMPS,ioos:station:USF.COMPS:SHP:1,2013-02-01T17:00:00Z,30.0600,-84.2910,-0.614,1111122 
COMPS,ioos:station:USF.COMPS:SHP:1,2013-02-01T17:06:00Z,30.0600,-84.2910,-0.605,1111122 
COMPS,ioos:station:USF.COMPS:SHP:1,2013-02-01T17:12:00Z,30.0600,-84.2910,-0.596,1111122 
COMPS,ioos:station:USF.COMPS:SHP:1,2013-02-01T17:18:00Z,30.0600,-84.2910,-0.586,1111122 
COMPS,ioos:station:USF.COMPS:SHP:1,2013-02-01T17:24:00Z,30.0600,-84.2910,-0.581,1111122 
COMPS,ioos:station:USF.COMPS:SHP:1,2013-02-01T17:30:00Z,30.0600,-84.2910,-0.569,1111122 
COMPS,ioos:station:USF.COMPS:SHP:1,2013-02-01T17:36:00Z,30.0600,-84.2910,-0.553,1111122 
COMPS,ioos:station:USF.COMPS:SHP:1,2013-02-01T17:42:00Z,30.0600,-84.2910,-0.539,1111122 
COMPS,ioos:station:USF.COMPS:SHP:1,2013-02-01T17:48:00Z,30.0600,-84.2910,-0.529,1111122 
COMPS,ioos:station:USF.COMPS:SHP:1,2013-02-01T17:54:00Z,30.0600,-84.2910,-0.516,1111122 
COMPS,ioos:station:USF.COMPS:SHP:1,2013-02-01T18:00:00Z,30.0600,-84.2910,-0.501,1111122 
COMPS,ioos:station:USF.COMPS:SHP:1,2013-02-01T18:06:00Z,30.0600,-84.2910,-0.488,1111122 
COMPS,ioos:station:USF.COMPS:SHP:1,2013-02-01T18:12:00Z,30.0600,-84.2910,-0.475,1111122 
COMPS,ioos:station:USF.COMPS:SHP:1,2013-02-01T18:18:00Z,30.0600,-84.2910,-0.459,1111122 
COMPS,ioos:station:USF.COMPS:SHP:1,2013-02-01T18:24:00Z,30.0600,-84.2910,-0.444,1111122 
COMPS,ioos:station:USF.COMPS:SHP:1,2013-02-01T18:30:00Z,30.0600,-84.2910,-0.427,1111122 
COMPS,ioos:station:USF.COMPS:SHP:1,2013-02-01T18:36:00Z,30.0600,-84.2910,-0.408,1111122 
COMPS,ioos:station:USF.COMPS:SHP:1,2013-02-01T18:42:00Z,30.0600,-84.2910,-0.386,1111122 
COMPS,ioos:station:USF.COMPS:SHP:1,2013-02-01T18:48:00Z,30.0600,-84.2910,-0.363,1111122 
COMPS,ioos:station:USF.COMPS:SHP:1,2013-02-01T18:54:00Z,30.0600,-84.2910,-0.346,1111122 
COMPS,ioos:station:USF.COMPS:SHP:1,2013-02-01T19:00:00Z,30.0600,-84.2910,-0.328,1111122 
COMPS,ioos:station:USF.COMPS:SHP:1,2013-02-01T19:06:00Z,30.0600,-84.2910,-0.313,1111122 
COMPS,ioos:station:USF.COMPS:SHP:1,2013-02-01T19:12:00Z,30.0600,-84.2910,-0.299,1111122 
COMPS,ioos:station:USF.COMPS:SHP:1,2013-02-01T19:18:00Z,30.0600,-84.2910,-0.283,1111122 
COMPS,ioos:station:USF.COMPS:SHP:1,2013-02-01T19:24:00Z,30.0600,-84.2910,-0.261,1111122 
COMPS,ioos:station:USF.COMPS:SHP:1,2013-02-01T19:30:00Z,30.0600,-84.2910,-0.238,1111122 
COMPS,ioos:station:USF.COMPS:SHP:1,2013-02-01T19:36:00Z,30.0600,-84.2910,-0.216,1111122 
COMPS,ioos:station:USF.COMPS:SHP:1,2013-02-01T19:42:00Z,30.0600,-84.2910,-0.195,1111122 
COMPS,ioos:station:USF.COMPS:SHP:1,2013-02-01T19:48:00Z,30.0600,-84.2910,-0.179,1111122 
COMPS,ioos:station:USF.COMPS:SHP:1,2013-02-01T19:54:00Z,30.0600,-84.2910,-0.161,1111122 
COMPS,ioos:station:USF.COMPS:SHP:1,2013-02-01T20:00:00Z,30.0600,-84.2910,-0.14,1111122 
COMPS,ioos:station:USF.COMPS:SHP:1,2013-02-01T20:06:00Z,30.0600,-84.2910,-0.12,1111122 
COMPS,ioos:station:USF.COMPS:SHP:1,2013-02-01T20:12:00Z,30.0600,-84.2910,-0.103,1111122 
COMPS,ioos:station:USF.COMPS:SHP:1,2013-02-01T20:18:00Z,30.0600,-84.2910,-0.09,1111122 
COMPS,ioos:station:USF.COMPS:SHP:1,2013-02-01T20:24:00Z,30.0600,-84.2910,-0.077,1111122 
COMPS,ioos:station:USF.COMPS:SHP:1,2013-02-01T20:30:00Z,30.0600,-84.2910,-0.062,1111122 
COMPS,ioos:station:USF.COMPS:SHP:1,2013-02-01T20:36:00Z,30.0600,-84.2910,-0.034,1111122 
COMPS,ioos:station:USF.COMPS:SHP:1,2013-02-01T20:42:00Z,30.0600,-84.2910,-0.019,1111122 
COMPS,ioos:station:USF.COMPS:SHP:1,2013-02-01T20:48:00Z,30.0600,-84.2910,-0.009,1111122 
COMPS,ioos:station:USF.COMPS:SHP:1,2013-02-01T20:54:00Z,30.0600,-84.2910,0.008,1111122 
COMPS,ioos:station:USF.COMPS:SHP:1,2013-02-01T21:00:00Z,30.0600,-84.2910,0.021,1111122 
COMPS,ioos:station:USF.COMPS:SHP:1,2013-02-01T21:06:00Z,30.0600,-84.2910,0.043,1111122 
COMPS,ioos:station:USF.COMPS:SHP:1,2013-02-01T21:12:00Z,30.0600,-84.2910,0.067,1111122 
COMPS,ioos:station:USF.COMPS:SHP:1,2013-02-01T21:18:00Z,30.0600,-84.2910,0.087,1111122 
COMPS,ioos:station:USF.COMPS:SHP:1,2013-02-01T21:24:00Z,30.0600,-84.2910,0.1,1111122 
COMPS,ioos:station:USF.COMPS:SHP:1,2013-02-01T21:30:00Z,30.0600,-84.2910,0.104,1111122 
COMPS,ioos:station:USF.COMPS:SHP:1,2013-02-01T21:36:00Z,30.0600,-84.2910,0.117,1111122 
COMPS,ioos:station:USF.COMPS:SHP:1,2013-02-01T21:42:00Z,30.0600,-84.2910,0.125,1111122 
COMPS,ioos:station:USF.COMPS:SHP:1,2013-02-01T21:48:00Z,30.0600,-84.2910,0.13,1111122 
COMPS,ioos:station:USF.COMPS:SHP:1,2013-02-01T21:54:00Z,30.0600,-84.2910,0.13,1111122 
COMPS,ioos:station:USF.COMPS:SHP:1,2013-02-01T22:00:00Z,30.0600,-84.2910,0.128,1111122 
COMPS,ioos:station:USF.COMPS:SHP:1,2013-02-01T22:06:00Z,30.0600,-84.2910,0.142,1111122 
COMPS,ioos:station:USF.COMPS:SHP:1,2013-02-01T22:12:00Z,30.0600,-84.2910,0.154,1111122 
COMPS,ioos:station:USF.COMPS:SHP:1,2013-02-01T22:18:00Z,30.0600,-84.2910,0.158,1111122 
COMPS,ioos:station:USF.COMPS:SHP:1,2013-02-01T22:24:00Z,30.0600,-84.2910,0.156,1111122 
COMPS,ioos:station:USF.COMPS:SHP:1,2013-02-01T22:30:00Z,30.0600,-84.2910,0.151,1111122 
COMPS,ioos:station:USF.COMPS:SHP:1,2013-02-01T22:36:00Z,30.0600,-84.2910,0.151,1111122 
COMPS,ioos:station:USF.COMPS:SHP:1,2013-02-01T22:42:00Z,30.0600,-84.2910,0.144,1111122 
COMPS,ioos:station:USF.COMPS:SHP:1,2013-02-01T22:48:00Z,30.0600,-84.2910,0.135,1111122 
COMPS,ioos:station:USF.COMPS:SHP:1,2013-02-01T22:54:00Z,30.0600,-84.2910,0.139,1111122 
COMPS,ioos:station:USF.COMPS:SHP:1,2013-02-01T23:00:00Z,30.0600,-84.2910,0.144,1111122 
COMPS,ioos:station:USF.COMPS:SHP:1,2013-02-01T23:06:00Z,30.0600,-84.2910,0.146,1111122 
COMPS,ioos:station:USF.COMPS:SHP:1,2013-02-01T23:12:00Z,30.0600,-84.2910,0.14,1111122 
COMPS,ioos:station:USF.COMPS:SHP:1,2013-02-01T23:18:00Z,30.0600,-84.2910,0.124,1111122 
COMPS,ioos:station:USF.COMPS:SHP:1,2013-02-01T23:24:00Z,30.0600,-84.2910,0.119,1111122 
COMPS,ioos:station:USF.COMPS:SHP:1,2013-02-01T23:30:00Z,30.0600,-84.2910,0.125,1111122 
COMPS,ioos:station:USF.COMPS:SHP:1,2013-02-01T23:36:00Z,30.0600,-84.2910,0.115,1111122 
COMPS,ioos:station:USF.COMPS:SHP:1,2013-02-01T23:42:00Z,30.0600,-84.2910,0.109,1111122 
COMPS,ioos:station:USF.COMPS:SHP:1,2013-02-01T23:48:00Z,30.0600,-84.2910,0.099,1111122 
COMPS,ioos:station:USF.COMPS:SHP:1,2013-02-01T23:54:00Z,30.0600,-84.2910,0.084,1111122 
COMPS,ioos:station:USF.COMPS:SHP:1,2013-02-02T00:00:00Z,30.0600,-84.2910,0.071,1111122 
COMPS,ioos:station:USF.COMPS:SHP:1,2013-02-02T00:06:00Z,30.0600,-84.2910,0.069,1111122 
COMPS,ioos:station:USF.COMPS:SHP:1,2013-02-02T00:12:00Z,30.0600,-84.2910,0.067,1111122 
COMPS,ioos:station:USF.COMPS:SHP:1,2013-02-02T00:18:00Z,30.0600,-84.2910,0.055,1111122 
COMPS,ioos:station:USF.COMPS:SHP:1,2013-02-02T00:24:00Z,30.0600,-84.2910,0.032,1111122 
COMPS,ioos:station:USF.COMPS:SHP:1,2013-02-02T00:30:00Z,30.0600,-84.2910,0.015,1111122 
COMPS,ioos:station:USF.COMPS:SHP:1,2013-02-02T00:36:00Z,30.0600,-84.2910,0.0,1114422 
COMPS,ioos:station:USF.COMPS:SHP:1,2013-02-02T00:42:00Z,30.0600,-84.2910,-0.022,1111122 
COMPS,ioos:station:USF.COMPS:SHP:1,2013-02-02T00:48:00Z,30.0600,-84.2910,-0.041,1111122 
COMPS,ioos:station:USF.COMPS:SHP:1,2013-02-02T00:54:00Z,30.0600,-84.2910,-0.058,1111122 
COMPS,ioos:station:USF.COMPS:SHP:1,2013-02-02T01:00:00Z,30.0600,-84.2910,-0.075,1111122 
COMPS,ioos:station:USF.COMPS:SHP:1,2013-02-02T01:06:00Z,30.0600,-84.2910,-0.096,1111122 
COMPS,ioos:station:USF.COMPS:SHP:1,2013-02-02T01:12:00Z,30.0600,-84.2910,-0.118,1111122 
COMPS,ioos:station:USF.COMPS:SHP:1,2013-02-02T01:18:00Z,30.0600,-84.2910,-0.138,1111122 
COMPS,ioos:station:USF.COMPS:SHP:1,2013-02-02T01:24:00Z,30.0600,-84.2910,-0.158,1111122 
COMPS,ioos:station:USF.COMPS:SHP:1,2013-02-02T01:30:00Z,30.0600,-84.2910,-0.177,1111122 
COMPS,ioos:station:USF.COMPS:SHP:1,2013-02-02T01:36:00Z,30.0600,-84.2910,-0.189,1111122 
COMPS,ioos:station:USF.COMPS:SHP:1,2013-02-02T01:42:00Z,30.0600,-84.2910,-0.208,1111122 
COMPS,ioos:station:USF.COMPS:SHP:1,2013-02-02T01:48:00Z,30.0600,-84.2910,-0.232,1111122 
COMPS,ioos:station:USF.COMPS:SHP:1,2013-02-02T01:54:00Z,30.0600,-84.2910,-0.249,1111122 
COMPS,ioos:station:USF.COMPS:SHP:1,2013-02-02T02:00:00Z,30.0600,-84.2910,-0.264,1111122 
COMPS,ioos:station:USF.COMPS:SHP:1,2013-02-02T02:06:00Z,30.0600,-84.2910,-0.283,1111122 
COMPS,ioos:station:USF.COMPS:SHP:1,2013-02-02T02:12:00Z,30.0600,-84.2910,-0.304,1111122 
COMPS,ioos:station:USF.COMPS:SHP:1,2013-02-02T02:18:00Z,30.0600,-84.2910,-0.318,1111122 
COMPS,ioos:station:USF.COMPS:SHP:1,2013-02-02T02:24:00Z,30.0600,-84.2910,-0.333,1111122 
COMPS,ioos:station:USF.COMPS:SHP:1,2013-02-02T02:30:00Z,30.0600,-84.2910,-0.353,1111122 
COMPS,ioos:station:USF.COMPS:SHP:1,2013-02-02T02:36:00Z,30.0600,-84.2910,-0.371,1111122 
COMPS,ioos:station:USF.COMPS:SHP:1,2013-02-02T02:42:00Z,30.0600,-84.2910,-0.385,1111122 
COMPS,ioos:station:USF.COMPS:SHP:1,2013-02-02T02:48:00Z,30.0600,-84.2910,-0.401,1111122 